| time (UTC) | temp C | wind direction | speed KPH | gust KPH | rain 1hr cm | rain 24hr cm | rain mn cm | humidity % | barometer mb |
| 20260510190038 | 18 | 42 | 17.7 | 32.2 | 0.00 | 0.15 | 0.15 | 42 | 1019.9 |
| 20260510184536 | 17 | 74 | 22.5 | 33.8 | 0.00 | 0.15 | 0.15 | 42 | 1020.0 |
| 20260510183044 | 16 | 65 | 22.5 | 33.8 | 0.00 | 0.15 | 0.15 | 44 | 1020.0 |
| 20260510181534 | 16 | 65 | 19.3 | 30.6 | 0.00 | 0.15 | 0.15 | 47 | 1019.8 |
| 20260510180046 | 15 | 72 | 14.5 | 24.1 | 0.00 | 0.15 | 0.15 | 51 | 1019.8 |
| 20260510174533 | 15 | 77 | 9.7 | 19.3 | 0.00 | 0.15 | 0.15 | 55 | 1020.3 |
| 20260510173031 | 15 | 71 | 9.7 | 22.5 | 0.00 | 0.15 | 0.15 | 57 | 1020.7 |
| 20260510171529 | 13 | 42 | 14.5 | 25.7 | 0.00 | 0.15 | 0.15 | 61 | 1020.2 |
| 20260510170034 | 13 | 50 | 12.9 | 24.1 | 0.03 | 0.15 | 0.15 | 66 | 1019.8 |
| 20260510164545 | 12 | 86 | 17.7 | 30.6 | 0.03 | 0.15 | 0.15 | 65 | 1019.6 |
| 20260510163027 | 12 | 13 | 9.7 | 19.3 | 0.03 | 0.15 | 0.15 | 76 | 1020.0 |
| 20260510161525 | 12 | 62 | 8.0 | 17.7 | 0.03 | 0.15 | 0.15 | 79 | 1019.7 |
| 20260510160027 | 11 | 80 | 12.9 | 20.9 | 0.00 | 0.13 | 0.13 | 76 | 1018.8 |
| 20260510154523 | 12 | 55 | 12.9 | 17.7 | 0.00 | 0.13 | 0.13 | 73 | 1019.2 |
| 20260510153028 | 12 | 51 | 12.9 | 19.3 | 0.00 | 0.13 | 0.13 | 72 | 1019.2 |
| 20260510151520 | 12 | 83 | 14.5 | 20.9 | 0.00 | 0.13 | 0.13 | 73 | 1019.2 |
| 20260510150022 | 11 | 76 | 12.9 | 20.9 | 0.03 | 0.13 | 0.13 | 76 | 1019.2 |
| 20260510144523 | 11 | 78 | 12.9 | 24.1 | 0.03 | 0.13 | 0.13 | 77 | 1019.2 |
| 20260510143017 | 11 | 54 | 19.3 | 25.7 | 0.03 | 0.13 | 0.13 | 80 | 1019.2 |
| 20260510141515 | 12 | 40 | 12.9 | 19.3 | 0.08 | 0.13 | 0.13 | 78 | 1019.0 |
| 20260510140013 | 12 | 57 | 16.1 | 25.7 | 0.08 | 0.10 | 0.10 | 78 | 1019.1 |
| 20260510134510 | 12 | 40 | 14.5 | 20.9 | 0.10 | 0.10 | 0.10 | 79 | 1019.2 |
| 20260510133008 | 12 | 51 | 12.9 | 19.3 | 0.10 | 0.10 | 0.10 | 79 | 1019.1 |
| 20260510131505 | 13 | 14 | 14.5 | 19.3 | 0.05 | 0.05 | 0.05 | 75 | 1019.1 |
| 20260510130001 | 13 | 15 | 8.0 | 12.9 | 0.03 | 0.03 | 0.03 | 72 | 1018.6 |
| 20260510124612 | 13 | 58 | 4.8 | 16.1 | 0.00 | 0.00 | 0.00 | 69 | 1018.3 |
| 20260510123056 | 14 | 344 | 9.7 | 22.5 | 0.00 | 0.00 | 0.00 | 68 | 1017.6 |
| 20260510121549 | 15 | 30 | 16.1 | 25.7 | 0.00 | 0.00 | 0.00 | 64 | 1016.8 |
| 20260510120045 | 15 | 74 | 16.1 | 29.0 | 0.00 | 0.00 | 0.00 | 63 | 1016.0 |
| 20260510114543 | 15 | 59 | 14.5 | 24.1 | 0.00 | 0.00 | 0.00 | 63 | 1015.4 |
| 20260510113039 | 15 | 47 | 14.5 | 24.1 | 0.00 | 0.00 | 0.00 | 63 | 1014.9 |
| 20260510111558 | 15 | 76 | 14.5 | 30.6 | 0.00 | 0.00 | 0.00 | 63 | 1014.1 |
| 20260510110037 | 15 | 72 | 19.3 | 33.8 | 0.00 | 0.00 | 0.00 | 63 | 1013.6 |
| 20260510104539 | 15 | 94 | 19.3 | 32.2 | 0.00 | 0.00 | 0.00 | 62 | 1013.4 |
| 20260510103034 | 16 | 62 | 19.3 | 33.8 | 0.00 | 0.00 | 0.00 | 62 | 1013.2 |
| 20260510101526 | 16 | 49 | 16.1 | 32.2 | 0.00 | 0.00 | 0.00 | 63 | 1013.1 |
| 20260510100023 | 15 | 18 | 16.1 | 29.0 | 0.00 | 0.00 | 0.00 | 63 | 1012.8 |
| 20260510094523 | 16 | 83 | 16.1 | 30.6 | 0.00 | 0.00 | 0.00 | 63 | 1012.7 |
| 20260510093018 | 16 | 46 | 17.7 | 25.7 | 0.00 | 0.00 | 0.00 | 63 | 1012.4 |
| 20260510091534 | 16 | 67 | 17.7 | 29.0 | 0.00 | 0.00 | 0.00 | 63 | 1012.4 |
| 20260510090014 | 16 | 45 | 16.1 | 25.7 | 0.00 | 0.00 | 0.00 | 63 | 1012.2 |
| 20260510084511 | 16 | 76 | 16.1 | 32.2 | 0.00 | 0.00 | 0.00 | 64 | 1012.0 |
| 20260510083008 | 16 | 32 | 12.9 | 19.3 | 0.00 | 0.00 | 0.00 | 63 | 1012.0 |
| 20260510081518 | 17 | 35 | 11.3 | 16.1 | 0.00 | 0.00 | 0.00 | 62 | 1012.0 |
| 20260510080002 | 17 | 28 | 9.7 | 16.1 | 0.00 | 0.00 | 0.00 | 61 | 1011.6 |
| 20260510074501 | 17 | 61 | 9.7 | 16.1 | 0.00 | 0.00 | 0.00 | 61 | 1011.5 |
| 20260510073059 | 17 | 57 | 8.0 | 14.5 | 0.00 | 0.00 | 0.00 | 60 | 1011.6 |
| 20260510071557 | 17 | 44 | 9.7 | 14.5 | 0.00 | 0.00 | 0.00 | 60 | 1011.6 |
| 20260510064606 | 18 | 25 | 8.0 | 16.1 | 0.00 | 0.00 | 0.00 | 55 | 1011.4 |
| 20260510063048 | 18 | 40 | 8.0 | 11.3 | 0.00 | 0.00 | 0.00 | 54 | 1011.3 |
| 20260510061548 | 19 | 84 | 4.8 | 11.3 | 0.00 | 0.00 | 0.00 | 52 | 1010.9 |
| 20260510060042 | 19 | 59 | 4.8 | 9.7 | 0.00 | 0.00 | 0.00 | 52 | 1010.8 |
| 20260510054538 | 19 | 46 | 6.4 | 14.5 | 0.00 | 0.00 | 0.00 | 51 | 1010.6 |
| 20260510053035 | 20 | 39 | 8.0 | 9.7 | 0.00 | 0.00 | 0.00 | 51 | 1010.0 |
| 20260510051532 | 19 | 71 | 0.0 | 6.4 | 0.00 | 0.00 | 0.00 | 51 | 1009.8 |
| 20260510050036 | 20 | 67 | 1.6 | 9.7 | 0.00 | 0.00 | 0.00 | 52 | 1009.7 |
| 20260510044533 | 20 | 62 | 6.4 | 9.7 | 0.00 | 0.00 | 0.00 | 51 | 1009.6 |
| 20260510043029 | 20 | 76 | 3.2 | 6.4 | 0.00 | 0.00 | 0.00 | 49 | 1009.9 |
| 20260510041530 | 20 | 99 | 1.6 | 3.2 | 0.00 | 0.00 | 0.00 | 49 | 1009.9 |
| 20260510040028 | 21 | 98 | 0.0 | 3.2 | 0.00 | 0.00 | 0.00 | 47 | 1010.0 |
| 20260510034527 | 21 | 142 | 3.2 | 8.0 | 0.00 | 0.00 | 0.00 | 45 | 1009.7 |
| 20260510033027 | 21 | 167 | 1.6 | 8.0 | 0.00 | 0.00 | 0.00 | 46 | 1009.8 |
| 20260510031532 | 21 | 228 | 3.2 | 16.1 | 0.00 | 0.00 | 0.00 | 47 | 1009.5 |
| 20260510030025 | 22 | 210 | 6.4 | 16.1 | 0.00 | 0.00 | 0.00 | 46 | 1009.5 |
| 20260510024531 | 22 | 228 | 6.4 | 12.9 | 0.00 | 0.00 | 0.00 | 41 | 1010.2 |
| 20260510023025 | 23 | 257 | 6.4 | 17.7 | 0.00 | 0.00 | 0.00 | 42 | 1009.8 |
| 20260510021523 | 23 | 235 | 9.7 | 19.3 | 0.00 | 0.00 | 0.00 | 39 | 1009.7 |
| 20260510020023 | 24 | 177 | 14.5 | 29.0 | 0.00 | 0.00 | 0.00 | 38 | 1009.8 |
| 20260510014527 | 24 | 230 | 4.8 | 11.3 | 0.00 | 0.00 | 0.00 | 36 | 1009.2 |
| 20260510013023 | 24 | 197 | 3.2 | 11.3 | 0.00 | 0.00 | 0.00 | 35 | 1008.6 |
| 20260510011523 | 24 | 142 | 4.8 | 12.9 | 0.00 | 0.00 | 0.00 | 34 | 1007.5 |
| 20260510010021 | 25 | 142 | 6.4 | 14.5 | 0.00 | 0.00 | 0.00 | 33 | 1007.1 |
| 20260510004519 | 25 | 181 | 8.0 | 20.9 | 0.00 | 0.00 | 0.00 | 32 | 1006.7 |
| 20260510003019 | 26 | 179 | 11.3 | 17.7 | 0.00 | 0.00 | 0.00 | 31 | 1006.6 |
| 20260510001518 | 26 | 150 | 9.7 | 24.1 | 0.00 | 0.00 | 0.00 | 29 | 1006.3 |
| 20260510000018 | 27 | 150 | 11.3 | 22.5 | 0.00 | 0.00 | 0.00 | 28 | 1006.1 |
| 20260509234530 | 28 | 145 | 9.7 | 17.7 | 0.00 | 0.00 | 0.00 | 26 | 1006.3 |
| 20260509233030 | 28 | 157 | 11.3 | 17.7 | 0.00 | 0.00 | 0.00 | 24 | 1006.3 |
| 20260509231516 | 28 | 141 | 8.0 | 16.1 | 0.00 | 0.00 | 0.00 | 23 | 1006.5 |
| 20260509230015 | 29 | 164 | 12.9 | 19.3 | 0.00 | 0.00 | 0.00 | 22 | 1006.3 |
| 20260509224517 | 29 | 214 | 6.4 | 17.7 | 0.00 | 0.00 | 0.00 | 20 | 1006.4 |
| 20260509223017 | 29 | 131 | 9.7 | 19.3 | 0.00 | 0.00 | 0.00 | 22 | 1006.4 |
| 20260509221513 | 29 | 206 | 11.3 | 19.3 | 0.00 | 0.00 | 0.00 | 20 | 1006.2 |
| 20260509220018 | 30 | 183 | 11.3 | 22.5 | 0.00 | 0.00 | 0.00 | 22 | 1006.2 |
| 20260509214512 | 30 | 150 | 11.3 | 17.7 | 0.00 | 0.00 | 0.00 | 20 | 1006.2 |
| 20260509213011 | 30 | 238 | 11.3 | 19.3 | 0.00 | 0.00 | 0.00 | 20 | 1006.3 |
| 20260509211509 | 30 | 128 | 9.7 | 17.7 | 0.00 | 0.00 | 0.00 | 20 | 1006.6 |
| 20260509210009 | 30 | 265 | 9.7 | 20.9 | 0.00 | 0.00 | 0.00 | 19 | 1006.7 |
| 20260509204508 | 30 | 217 | 6.4 | 19.3 | 0.00 | 0.00 | 0.00 | 20 | 1006.8 |
| 20260509203004 | 30 | 124 | 1.6 | 19.3 | 0.00 | 0.00 | 0.00 | 19 | 1007.3 |
| 20260509201502 | 29 | 232 | 9.7 | 16.1 | 0.00 | 0.00 | 0.00 | 20 | 1007.3 |
| 20260509200001 | 29 | 269 | 6.4 | 16.1 | 0.00 | 0.00 | 0.00 | 21 | 1007.6 |
| 20260509194600 | 30 | 220 | 9.7 | 20.9 | 0.00 | 0.00 | 0.00 | 21 | 1007.7 |
| 20260509193101 | 29 | 252 | 11.3 | 19.3 | 0.00 | 0.00 | 0.00 | 20 | 1007.9 |
| 20260509191558 | 30 | 163 | 8.0 | 20.9 | 0.00 | 0.00 | 0.00 | 20 | 1008.1 |